Погода в Салониках

Греция     40°37′56″N   22°56′08″E
темп.,
°C
ветер,
м/с
пор.,
м/с
влажн.,
%
обл.,
%
осадки,
мм/ч
давл.,
гПа
погр.,
м
17 мая, вт
вт1700:00+18всв22726 0.0 101863
03:00+17св11720 0.0 101821
06:00+17всв11730 0.0 101712
09:00+21ююв11590 0.0 1018337
12:00+26зюз11419 0.0 10171049
15:00+28юз43373 0.0 10151923
18:00+26юз43450 0.0 1013566
21:00+21зюз12620 0.0 101469
18 мая, ср
ср1800:00+19ссв116910 0.0 101428
03:00+18с117062 0.0 101315
06:00+16ссз22835 0.5 101343
09:00+20сз486419 0.5 1014496
12:00+25ссз79485 0.0 10141104
15:00+25ссз101142100 0.0 10141412
18:00+22ссз91338100 0.1 1015910
21:00+16вюв488697 2.1 1019462
19 мая, чт
чт1900:00+11вюв5889100 4.4 1025403
03:00+11вюв1285100 8.4 1027200
06:00+10зсз239115 0.0 1028169
09:00+14ссз126217 0.0 1029508
12:00+18зюз124616 0.0 10291557
15:00+20зюз43400 0.0 10271932
18:00+20юз43430 0.0 10261238
21:00+15ю22590 0.0 1027161
20 мая, пт
пт2000:00+14вюв12660 0.0 102861
03:00+13св11680 0.0 102822
06:00+12св11712 0.0 102814
09:00+16сз22580 0.0 1028415
12:00+21зсз12440 0.0 10271121
15:00+24з22335 0.0 10251624
18:00+24зюз33330 0.0 10231351
21:00+18ююз12530 0.0 102262
21 мая, сб
сб2100:00+17ссв005861 0.0 102217
03:00+15ссв1159100 0.0 102111
06:00+14ссв11603 0.0 102010
09:00+19сз11494 0.0 1020276
12:00+24зсз23345 0.0 1018871
15:00+28зсз34275 0.0 10161490
18:00+27зюз33325 0.0 1014663
21:00+21ююз12490 0.0 101444